FW2094 Weather Reports


time (UTC)temp
F
wind
direction
speed
knots
gust
knots
rain 1hr
in
rain 24hr
in
rain mn
in
humidity
%
barometer
mb
20260505223050 56 80 0.0 0.0 0.00 0.86 0.00 98 1011.3
20260505221539 56 80 0.0 0.0 0.00 0.86 0.00 98 1011.5
20260505220032 56 80 0.0 0.0 0.00 0.86 0.00 98 1011.9
20260505214538 57 80 0.0 0.0 0.00 0.86 0.86 98 1012.0
20260505213031 57 80 0.0 0.0 0.00 0.86 0.86 98 1012.1
20260505211531 57 80 0.0 0.0 0.00 0.86 0.86 98 1012.3
20260505210032 58 80 0.0 0.0 0.00 0.86 0.86 97 1012.2
20260505204530 58 80 0.0 0.0 0.00 0.86 0.86 98 1012.2
20260505203029 58 81 0.0 0.0 0.00 0.86 0.86 98 1012.2
20260505201530 59 75 0.0 0.0 0.00 0.86 0.86 98 1012.1
20260505200031 59 75 0.0 0.0 0.00 0.86 0.86 98 1012.0
20260505194507 59 75 0.0 0.0 0.00 0.86 0.86 97 1012.0
20260505193009 59 75 0.0 0.0 0.00 0.86 0.86 97 1011.9
20260505191506 59 75 0.0 0.0 0.00 0.86 0.86 96 1011.7
20260505190006 60 75 0.0 0.0 0.00 0.86 0.86 97 1011.5
20260505184505 60 75 0.0 0.0 0.00 0.86 0.86 96 1011.5
20260505183008 60 75 0.0 0.0 0.00 0.86 0.86 96 1011.4
20260505181503 60 75 0.0 0.0 0.00 0.86 0.86 95 1011.4
20260505180003 61 76 0.0 0.0 0.00 0.86 0.86 94 1011.3
20260505174503 61 78 0.0 0.0 0.00 0.86 0.86 94 1011.2
20260505173006 61 360 0.0 2.6 0.00 0.86 0.86 94 1011.2
20260505171503 62 360 0.0 1.7 0.00 0.86 0.86 94 1011.2
20260505170105 61 360 0.9 2.6 0.00 0.86 0.86 94 1011.1
20260505170000 61 360 0.9 2.6 0.00 0.86 0.86 94 1011.2
20260505164632 61 360 0.0 2.6 0.00 0.86 0.86 95 1011.2
20260505163100 62 360 0.0 3.5 0.00 0.86 0.86 95 1011.1
20260505161601 62 360 0.0 1.7 0.00 0.86 0.86 95 1011.1
20260505160109 62 360 0.9 2.6 0.00 0.86 0.86 94 1011.1
20260505153057 63 360 0.0 4.3 0.00 0.86 0.86 94 1011.0
20260505151603 63 360 0.9 3.5 0.00 0.86 0.86 95 1011.1
20260505124556 65 360 1.7 7.0 0.00 0.86 0.86 91 1011.2
20260505123046 64 360 2.6 7.0 0.00 0.86 0.86 90 1011.4
20260505121547 63 360 0.0 2.6 0.00 0.86 0.86 93 1011.4
20260505120050 64 360 0.0 1.7 0.00 0.86 0.86 89 1011.8
20260505114546 65 360 0.9 5.2 0.00 0.86 0.86 93 1011.7
20260505113039 63 360 0.0 3.5 0.00 0.86 0.86 94 1011.7
20260505111538 62 360 0.0 2.6 0.00 0.86 0.86 96 1011.6
20260505101536 58 155 0.0 0.0 0.22 0.86 0.86 97 1011.6
20260505100028 57 80 0.0 1.7 0.23 0.85 0.85 97 1011.8
20260505094530 56 52 0.0 3.5 0.25 0.83 0.83 97 1011.6
20260505093027 56 68 0.0 2.6 0.18 0.70 0.70 97 1011.7
20260505091530 55 279 0.0 1.7 0.21 0.64 0.64 97 1011.8
20260505090025 55 279 0.0 0.9 0.23 0.61 0.61 96 1011.7
20260505084534 55 279 0.0 1.7 0.18 0.56 0.56 95 1012.2
20260505083025 55 278 0.0 4.3 0.13 0.51 0.51 94 1012.4